Torna al catalogo

STARLINK-36800

AttivoComunicazioniSSO
NORAD 67797·PAYLOAD·🇺🇸 United States

Lanciato Feb 15, 2026 da Vandenberg Space Force Base

Loading…

Prossimi Passaggi (prossime 24 ore)

TLE

AggiornatoSource: CelesTrak SupGP

Epoca: Sep 14, 2026, 21:13 UTC

1 67797C 26032A   26257.88451389  .00084702  00000+0  26305-2 0  2572
2 67797  97.2854  84.4385 0001646  92.0340 114.4162 15.33382062    13

Traccia STARLINK-36800 in tempo reale con AllMySat

Download on the App Store